Hourly Weather Holmy

Today, 16 April, Friday

Time Temperature Precipitation Wind Pressure Humidity
00:00 +3°C° 0 mm 5 mps 749 mmHg 82%
01:00 +3°C° 0 mm 5 mps 749 mmHg 83%
02:00 +3°C° 0 mm 5 mps 749 mmHg 85%
03:00 +2°C° 0 mm 5 mps 749 mmHg 85%
04:00 +2°C° 0 mm 5 mps 749 mmHg 86%
05:00 +2°C° 0 mm 5 mps 749 mmHg 87%
06:00 +3°C° 0 mm 5 mps 749 mmHg 84%
07:00 +3°C° 0 mm 5 mps 749 mmHg 81%
08:00 +5°C° 0 mm 5 mps 750 mmHg 78%
09:00 +6°C° 0 mm 5 mps 750 mmHg 74%
10:00 +8°C° 0 mm 5 mps 750 mmHg 69%
11:00 +9°C° 0 mm 5 mps 750 mmHg 65%
12:00 +10°C° 0 mm 5 mps 750 mmHg 63%
13:00 +12°C° 0 mm 5 mps 750 mmHg 61%
14:00 +13°C° 0 mm 5 mps 750 mmHg 59%
15:00 +12°C° 0 mm 5 mps 750 mmHg 60%
16:00 +12°C° 0 mm 5 mps 750 mmHg 62%
17:00 +12°C° 0 mm 5 mps 750 mmHg 63%
18:00 +10°C° 0 mm 5 mps 750 mmHg 64%
19:00 +9°C° 0 mm 5 mps 750 mmHg 66%
20:00 +8°C° 0 mm 5 mps 750 mmHg 68%
21:00 +7°C° 0 mm 5 mps 750 mmHg 69%
22:00 +6°C° 0 mm 5 mps 750 mmHg 69%
23:00 +6°C° 0 mm 5 mps 750 mmHg 70%

Tomorrow, 17 April, Saturday

Time Temperature Precipitation Wind Pressure Humidity
00:00 +5°C° 0 mm 5 mps 751 mmHg 72%
01:00 +5°C° 0 mm 5 mps 751 mmHg 73%
02:00 +5°C° 0 mm 4 mps 751 mmHg 75%
03:00 +4°C° 0 mm 4 mps 751 mmHg 77%
04:00 +4°C° 0 mm 4 mps 751 mmHg 78%
05:00 +3°C° 0 mm 4 mps 751 mmHg 80%
06:00 +4°C° 0 mm 4 mps 751 mmHg 76%
07:00 +5°C° 0 mm 5 mps 751 mmHg 72%
08:00 +6°C° 0 mm 5 mps 751 mmHg 68%
09:00 +8°C° 0 mm 5 mps 751 mmHg 64%
10:00 +9°C° 0 mm 5 mps 751 mmHg 59%
11:00 +12°C° 0 mm 5 mps 751 mmHg 55%
12:00 +11°C° 0 mm 6 mps 751 mmHg 53%
13:00 +13°C° 0 mm 6 mps 751 mmHg 50%
14:00 +13°C° 0 mm 6 mps 751 mmHg 48%
15:00 +13°C° 0 mm 5 mps 751 mmHg 47%
16:00 +12°C° 0 mm 5 mps 751 mmHg 47%
17:00 +12°C° 0 mm 5 mps 751 mmHg 47%
18:00 +10°C° 0 mm 5 mps 751 mmHg 50%
19:00 +8°C° 0 mm 5 mps 751 mmHg 52%
20:00 +7°C° 0 mm 4 mps 751 mmHg 54%
21:00 +6°C° 0 mm 4 mps 751 mmHg 57%
22:00 +6°C° 0 mm 4 mps 751 mmHg 61%
23:00 +5°C° 0 mm 4 mps 751 mmHg 64%

Day after tomorrow, 18 April, Sunday

Time Temperature Precipitation Wind Pressure Humidity
00:00 +5°C° 0 mm 4 mps 751 mmHg 67%
01:00 +4°C° 0 mm 4 mps 751 mmHg 70%
02:00 +3°C° 0 mm 4 mps 751 mmHg 73%
03:00 +3°C° 0 mm 4 mps 751 mmHg 74%
04:00 +3°C° 0 mm 4 mps 751 mmHg 75%
05:00 +1°C° 0 mm 4 mps 751 mmHg 77%
06:00 +3°C° 0 mm 5 mps 751 mmHg 71%
07:00 +5°C° 0 mm 5 mps 751 mmHg 65%
08:00 +6°C° 0 mm 5 mps 751 mmHg 59%
09:00 +8°C° 0 mm 5 mps 751 mmHg 54%
10:00 +9°C° 0 mm 5 mps 751 mmHg 48%
11:00 +10°C° 0 mm 6 mps 751 mmHg 43%
12:00 +11°C° 0 mm 6 mps 751 mmHg 42%
13:00 +11°C° 0 mm 6 mps 751 mmHg 40%
14:00 +13°C° 0 mm 6 mps 751 mmHg 39%
15:00 +12°C° 0 mm 5 mps 751 mmHg 42%
16:00 +12°C° 0 mm 5 mps 751 mmHg 44%
17:00 +10°C° 0 mm 5 mps 751 mmHg 46%
18:00 +10°C° 0 mm 4 mps 751 mmHg 52%
19:00 +8°C° 0 mm 4 mps 751 mmHg 58%
20:00 +7°C° 0 mm 3 mps 751 mmHg 64%
21:00 +6°C° 0 mm 4 mps 751 mmHg 67%
22:00 +6°C° 0 mm 4 mps 752 mmHg 71%
23:00 +5°C° 0 mm 4 mps 752 mmHg 74%

19 April, Monday

Time Temperature Precipitation Wind Pressure Humidity
00:00 +5°C° 0 mm 4 mps 752 mmHg 77%
01:00 +4°C° 0 mm 4 mps 752 mmHg 81%
02:00 +4°C° 0 mm 4 mps 752 mmHg 85%
03:00 +3°C° 0 mm 4 mps 752 mmHg 87%
04:00 +3°C° 0 mm 4 mps 752 mmHg 88%
05:00 +1°C° 0 mm 4 mps 752 mmHg 90%
06:00 +3°C° 0 mm 4 mps 752 mmHg 85%
07:00 +4°C° 0 mm 4 mps 752 mmHg 80%
08:00 +5°C° 0 mm 4 mps 753 mmHg 74%
09:00 +6°C° 0 mm 5 mps 752 mmHg 70%
10:00 +7°C° 0 mm 5 mps 752 mmHg 66%
11:00 +7°C° 0 mm 5 mps 752 mmHg 61%
12:00 +7°C° 0 mm 5 mps 752 mmHg 64%
13:00 +7°C° 0 mm 4 mps 752 mmHg 67%
14:00 +7°C° 0 mm 4 mps 752 mmHg 69%
15:00 +7°C° 0 mm 4 mps 752 mmHg 68%
16:00 +7°C° 0 mm 4 mps 752 mmHg 67%
17:00 +7°C° 0 mm 4 mps 752 mmHg 66%
18:00 +6°C° 0 mm 4 mps 752 mmHg 68%
19:00 +6°C° 0 mm 4 mps 752 mmHg 70%
20:00 +6°C° 0 mm 4 mps 752 mmHg 72%
21:00 +5°C° 0 mm 4 mps 751 mmHg 72%
22:00 +5°C° 0 mm 4 mps 751 mmHg 72%
23:00 +5°C° 0 mm 4 mps 751 mmHg 72%

20 April, Tuesday

Time Temperature Precipitation Wind Pressure Humidity
00:00 +4°C° 0 mm 4 mps 750 mmHg 70%
01:00 +4°C° 0 mm 4 mps 750 mmHg 67%
02:00 +2°C° 0 mm 5 mps 750 mmHg 65%
03:00 +2°C° 0 mm 5 mps 749 mmHg 66%
04:00 +1°C° 0 mm 5 mps 749 mmHg 67%
05:00 0°C° 0 mm 5 mps 749 mmHg 69%
06:00 +1°C° 0 mm 5 mps 748 mmHg 67%
07:00 +2°C° 0 mm 6 mps 748 mmHg 65%
08:00 +3°C° 0 mm 6 mps 747 mmHg 64%
09:00 +4°C° 0 mm 6 mps 747 mmHg 61%
10:00 +5°C° 0 mm 7 mps 746 mmHg 59%
11:00 +8°C° 0 mm 7 mps 745 mmHg 57%
12:00 +6°C° 0 mm 7 mps 745 mmHg 58%
13:00 +6°C° 0 mm 7 mps 744 mmHg 60%
14:00 +6°C° 0 mm 7 mps 743 mmHg 62%
15:00 +6°C° 0.4 mm 8 mps 742 mmHg 68%
16:00 +5°C° 0.4 mm 8 mps 741 mmHg 73%
17:00 +5°C° 0.4 mm 8 mps 740 mmHg 79%
18:00 +5°C° 1 mm 8 mps 740 mmHg 81%
19:00 +4°C° 1 mm 8 mps 739 mmHg 84%
20:00 +3°C° 1 mm 9 mps 738 mmHg 86%
21:00 +4°C° 0.8 mm 8 mps 737 mmHg 87%
22:00 +4°C° 0.8 mm 8 mps 737 mmHg 88%
23:00 +4°C° 0.8 mm 8 mps 736 mmHg 89%

21 April, Wednesday

Time Temperature Precipitation Wind Pressure Humidity
00:00 +4°C° 0.5 mm 8 mps 736 mmHg 89%
01:00 +4°C° 0.5 mm 7 mps 736 mmHg 89%
02:00 +4°C° 0.5 mm 7 mps 735 mmHg 90%
03:00 +4°C° 0.6 mm 7 mps 735 mmHg 90%
04:00 +4°C° 0.6 mm 7 mps 734 mmHg 91%
05:00 +4°C° 0.6 mm 6 mps 734 mmHg 91%
06:00 +4°C° 0.3 mm 7 mps 734 mmHg 91%
07:00 +5°C° 0.3 mm 7 mps 733 mmHg 91%
08:00 +5°C° 0.3 mm 7 mps 733 mmHg 91%
09:00 +5°C° 0.3 mm 7 mps 733 mmHg 90%
10:00 +5°C° 0.3 mm 6 mps 734 mmHg 88%
11:00 +5°C° 0.3 mm 6 mps 734 mmHg 86%
12:00 +7°C° 0.1 mm 6 mps 735 mmHg 80%
13:00 +8°C° 0.1 mm 6 mps 735 mmHg 74%
14:00 +9°C° 0.1 mm 6 mps 735 mmHg 68%
15:00 +9°C° 0.1 mm 6 mps 735 mmHg 69%
16:00 +9°C° 0.1 mm 6 mps 736 mmHg 69%
17:00 +9°C° 0.1 mm 6 mps 736 mmHg 69%
18:00 +8°C° 0.1 mm 6 mps 736 mmHg 72%
19:00 +7°C° 0.1 mm 6 mps 737 mmHg 75%
20:00 +5°C° 0.1 mm 6 mps 737 mmHg 78%
21:00 +5°C° 0.1 mm 6 mps 737 mmHg 80%
22:00 +5°C° 0.1 mm 5 mps 738 mmHg 81%
23:00 +5°C° 0.1 mm 5 mps 738 mmHg 83%
Show more